Other Surface Observations
Issued by NWS

Home | Current Version | Previous Version | Text Only | Print | Product List | Glossary On
Versions: 1 2 3 4 5 6 7 8 9 10 11 12 13 14 15 16 17 18 19 20 21 22 23 24 25 26 27 28 29 30 31 32 33 34 35 36 37 38 39 40 41 42 43 44 45 46 47 48 49 50
000
SXUS52 KTAE 291606
OSOTAE
OSOTAE
North Florida/South Alabama/Southwest Georgia Weather Roundup
National Weather Service Tallahassee Florida
1200 PM EDT THU SEP 29 2016

Note: "fair" indicates few or no clouds below 12,000 feet with no
significant weather and/or obstructions to visibility.

!FLZ017-115-028-034-025-291700
...North Florida...

CITY           SKY/WX    TMP DP  RH WIND       PRES   REMARKS
TALLAHASSEE    MOSUNNY   88  66  48 W8        30.01F HX  90
APALACHICOLA   MOSUNNY   87  68  52 NW8       30.03S HX  90
PERRY          SUNNY     87  69  55 W3        30.02S HX  90
CROSS CITY     MOSUNNY   84  75  74 SW5       30.02F HX  92
JACKSONVILLE   PTSUNNY   85  75  72 SW7       30.01S HX  93
$$

!FLZ112-006-005-002-011-291700
...Florida Panhandle...

CITY           SKY/WX    TMP DP  RH WIND       PRES   REMARKS
MARIANNA       SUNNY     84  61  45 SW3       30.01S
BONIFAY        FAIR      85  64  49 W6        30.03S
PANAMA CITY NW FAIR      84  65  52 SW10      30.02S
TYNDALL AFB    SUNNY     85  65  51 CALM      30.03S
TYND DRONE APT FAIR      84  65  52 S6        30.03S
DE FUNIAK SPR  FAIR      82  60  47 W5        30.04S
EGLIN AFB      MOSUNNY   85  58  39 W6        30.03S
DESTIN         SUNNY     86  61  42 NW6       30.03S
HURLBURT       SUNNY     85  58  38 W9        30.01F
CRESTVIEW      SUNNY     81  63  54 CALM      30.05R
PENSACOLA      SUNNY     84  60  44 NW9       30.04R
$$

!ALZ063-066-291700
...South Alabama...

CITY           SKY/WX    TMP DP  RH WIND       PRES   REMARKS
DOTHAN         SUNNY     84  59  42 W6        30.05S
OZARK CAIRNS   SUNNY     82  63  51 W8        30.02R
FT RUCKER HELI SUNNY     83  62  49 NW6       30.01R
RUCKER HELI 3  NOT AVBL
RUCKER HELI 2  NOT AVBL
FLORALA APT    NOT AVBL
ANDALUSIA      SUNNY     83  60  45 W9        30.04R
TROY           SUNNY     78  59  51 NW5       30.04S
EUFALA         NOT AVBL
MOBILE         MOSUNNY   76  61  59 VRB3      30.07S
$$

!GAZ120>161-291700
...Southwest and South Central Georgia...

CITY           SKY/WX    TMP DP  RH WIND       PRES   REMARKS
THOMASVILLE    FAIR      86  72  62 NW9       30.02S HX  92
BAINBRIDGE     SUNNY     82  59  44 CALM      30.02F
MOODY AFB      MOSUNNY   88  67  50 SW8       29.99S HX  91
VALDOSTA       SUNNY     87  70  56 VRB3      30.01S HX  92
MOULTRIE       SUNNY     82  68  61 W6        30.03R
BLAKELY        SUNNY     86  54  32 W8        30.02S
ALBANY         SUNNY     86  61  42 SW8       30.02S
TIFTON         FAIR      84  65  53 W3        30.01S
FITZGERALD     FAIR      88  69  53 W5        30.02F HX  93
CORDELE        FAIR      87  56  34 SW9       30.01S
AMERICUS       FAIR      82  50  32 NW9       30.02F
HOMERVILLE     PTSUNNY   86  72  62 S3        30.01F HX  92
$$

!GMZ750-755-770-775-291700
...Coastal and Buoy Obs...

STATION/POSITION TIME  TEMP    WIND        PRES    VSBY  WAVE
                       AIR SEA DIR/SP/G                  HT/PER
                 (UTC) (F)     (DEG/KT/KT) (MB)    (MI)  (FT/S)
KEATON BEACH     1600   81     200/  3/  4 1016.5R
CEDAR KEY        1500   82     250/ 12/ 16 1017.1R
C TOWER          1600   82     340/  6/  7 1017.6R
APALACHICOLA BUO 1550   84 85  260/ 10/ 12 1017.1R         2/ 4
PANAMA CITY BUOY 1450   83 85              1017.3          2/ 3
MOBILE BUOY      1500   82 85  320/ 12/ 16 1017.5R
ORANGE BCH AL BU 1550   80 85  300/  6/  8 1017.4R         1/ 4
$$




USA.gov is the U.S. government's official web portal to all federal, state and local government web resources and services.